EW8669 Weather Reports


Display with metric or nautical units.
time (UTC)temp
F
wind
direction
speed
MPH
gust
MPH
rain 1hr
in
rain 24hr
in
rain mn
in
humidity
%
barometer
mb
20260506001537 75 132 4.0 7.0 0.00 0.00 0.00 70 1015.2
20260506001023 75 98 4.0 8.0 0.00 0.00 0.00 69 1015.1
20260506000521 75 112 5.0 9.0 0.00 0.00 0.00 69 1015.1
20260506000039 75 114 6.0 9.0 0.00 0.00 0.00 68 1015.2
20260505235521 76 67 6.0 12.0 0.00 0.00 0.00 68 1015.1
20260505235022 76 101 6.0 12.0 0.00 0.00 0.00 67 1015.0
20260505234553 76 109 7.0 11.0 0.00 0.00 0.00 67 1015.0
20260505234023 76 109 8.0 12.0 0.00 0.00 0.00 65 1014.9
20260505233523 76 107 9.0 12.0 0.00 0.00 0.00 65 1014.9
20260505233042 76 107 9.0 13.0 0.00 0.00 0.00 64 1014.9
20260505232523 77 74 9.0 15.0 0.00 0.00 0.00 64 1014.9
20260505232022 77 91 9.0 15.0 0.00 0.00 0.00 65 1014.9
20260505231547 77 103 9.0 14.0 0.00 0.00 0.00 64 1014.8
20260505231021 77 89 9.0 13.0 0.00 0.00 0.00 66 1014.9
20260505230521 77 84 9.0 16.0 0.00 0.00 0.00 65 1014.9
20260505230040 77 105 10.0 16.0 0.00 0.00 0.00 64 1014.8
20260505225527 78 96 6.0 10.0 0.00 0.00 0.00 65 1014.9
20260505225023 78 0 0.0 0.0 0.00 0.00 0.00 62 1014.9
20260505224543 78 0 0.0 0.0 0.00 0.00 0.00 63 1014.9
20260505224021 78 0 0.0 0.0 0.00 0.00 0.00 60 1014.9
20260505223525 78 0 0.0 0.0 0.00 0.00 0.00 59 1015.0
20260505223050 78 0 0.0 0.0 0.00 0.00 0.00 60 1014.9
20260505222525 78 0 0.0 0.0 0.00 0.00 0.00 60 1014.9
20260505222023 78 0 0.0 0.0 0.00 0.00 0.00 59 1015.0
20260505221541 78 0 0.0 0.0 0.00 0.00 0.00 59 1015.1
20260505221024 78 0 0.0 0.0 0.00 0.00 0.00 58 1015.0
20260505220523 78 0 0.0 0.0 0.00 0.00 0.00 59 1015.1
20260505220041 79 0 0.0 0.0 0.00 0.00 0.00 59 1015.1
20260505215521 79 0 0.0 0.0 0.00 0.00 0.00 63 1015.1
20260505215023 79 0 0.0 0.0 0.00 0.00 0.00 61 1015.1
20260505214550 79 0 0.0 15.0 0.00 0.00 0.00 60 1014.9
20260505214024 79 0 4.0 15.0 0.00 0.00 0.00 59 1014.8
20260505213523 79 116 12.0 15.0 0.00 0.00 0.00 63 1014.8
20260505213043 79 120 8.0 14.0 0.00 0.00 0.00 61 1014.9
20260505212523 79 0 0.0 0.0 0.00 0.00 0.00 61 1014.9
20260505212024 79 0 0.0 0.0 0.00 0.00 0.00 62 1014.8
20260505211541 79 0 0.0 0.0 0.00 0.00 0.00 62 1014.9
20260505211021 80 0 0.0 0.0 0.00 0.00 0.00 63 1014.7
20260505210523 79 0 0.0 0.0 0.00 0.00 0.00 60 1014.7
20260505210042 79 0 0.0 0.0 0.00 0.00 0.00 60 1014.7
20260505205525 79 0 0.0 0.0 0.00 0.00 0.00 60 1014.6
20260505205022 79 0 0.0 0.0 0.00 0.00 0.00 62 1014.6
20260505204540 79 0 0.0 0.0 0.00 0.00 0.00 61 1014.7
20260505204021 79 0 0.0 0.0 0.00 0.00 0.00 62 1014.7
20260505203523 79 0 0.0 0.0 0.00 0.00 0.00 61 1014.7
20260505203048 80 0 0.0 0.0 0.00 0.00 0.00 61 1014.7
20260505202521 80 0 0.0 0.0 0.00 0.00 0.00 62 1014.7
20260505202021 80 0 0.0 0.0 0.00 0.00 0.00 62 1014.8
20260505201545 80 0 0.0 0.0 0.00 0.00 0.00 62 1014.7
20260505201023 80 0 0.0 0.0 0.00 0.00 0.00 62 1014.8
20260505200522 80 0 0.0 0.0 0.00 0.00 0.00 62 1014.9
20260505200047 80 0 0.0 0.0 0.00 0.00 0.00 64 1014.9
20260505195523 80 0 0.0 0.0 0.00 0.00 0.00 62 1014.9
20260505195021 80 0 0.0 0.0 0.00 0.00 0.00 60 1014.9
20260505194546 80 0 0.0 0.0 0.00 0.00 0.00 61 1015.1
20260505194021 79 0 0.0 0.0 0.00 0.00 0.00 62 1015.1
20260505193523 79 0 0.0 0.0 0.00 0.00 0.00 62 1015.2
20260505193041 79 0 0.0 0.0 0.00 0.00 0.00 62 1015.2
20260505192526 79 0 0.0 0.0 0.00 0.00 0.00 64 1015.2
20260505192023 79 0 0.0 0.0 0.00 0.00 0.00 64 1015.3
20260505191541 79 0 0.0 0.0 0.00 0.00 0.00 63 1015.3
20260505191023 79 0 0.0 0.0 0.00 0.00 0.00 64 1015.5
20260505190523 79 0 0.0 0.0 0.00 0.00 0.00 64 1015.4
20260505190040 79 0 0.0 0.0 0.00 0.00 0.00 65 1015.3
20260505185526 80 0 0.0 0.0 0.00 0.00 0.00 63 1015.4
20260505185021 80 0 0.0 0.0 0.00 0.00 0.00 63 1015.3
20260505184543 80 0 0.0 0.0 0.00 0.00 0.00 63 1015.4
20260505184021 80 0 0.0 0.0 0.00 0.00 0.00 64 1015.5
20260505183520 80 0 0.0 0.0 0.00 0.00 0.00 60 1015.6
20260505183042 80 0 0.0 0.0 0.00 0.00 0.00 62 1015.6
20260505182520 79 0 0.0 0.0 0.00 0.00 0.00 63 1015.7
20260505182022 80 0 0.0 0.0 0.00 0.00 0.00 62 1015.8
20260505181545 79 0 0.0 0.0 0.00 0.00 0.00 62 1015.9
20260505181020 79 0 0.0 0.0 0.00 0.00 0.00 62 1016.0
20260505180523 79 0 0.0 0.0 0.00 0.00 0.00 63 1016.1
20260505180042 80 0 0.0 0.0 0.00 0.00 0.00 64 1016.1
20260505175523 80 0 0.0 0.0 0.00 0.00 0.00 63 1016.0
20260505175021 80 0 0.0 0.0 0.00 0.00 0.00 61 1016.0
20260505174551 79 0 0.0 0.0 0.00 0.00 0.00 60 1016.0
20260505174021 79 0 0.0 0.0 0.00 0.00 0.00 61 1016.1
20260505173521 79 0 0.0 0.0 0.00 0.00 0.00 61 1016.1
20260505173042 79 0 0.0 0.0 0.00 0.00 0.00 63 1016.1
20260505172520 79 0 0.0 0.0 0.00 0.00 0.00 63 1016.2
20260505172021 79 0 0.0 0.0 0.00 0.00 0.00 62 1016.2
20260505171541 79 0 0.0 0.0 0.00 0.00 0.00 63 1016.3
20260505171024 79 0 0.0 0.0 0.00 0.00 0.00 63 1016.4
20260505170524 79 0 0.0 0.0 0.00 0.00 0.00 64 1016.4
20260505170040 79 0 0.0 0.0 0.00 0.00 0.00 64 1016.4
20260505165523 79 0 0.0 0.0 0.00 0.00 0.00 65 1016.3
20260505165020 79 0 0.0 0.0 0.00 0.00 0.00 65 1016.3
20260505164536 79 0 0.0 0.0 0.00 0.00 0.00 63 1016.3
20260505164025 79 0 0.0 0.0 0.00 0.00 0.00 63 1016.3
20260505163521 79 0 0.0 0.0 0.00 0.00 0.00 63 1016.4
20260505163048 79 0 0.0 0.0 0.00 0.00 0.00 63 1016.3
20260505162520 79 0 0.0 0.0 0.00 0.00 0.00 63 1016.3
20260505162021 79 0 0.0 0.0 0.00 0.00 0.00 62 1016.3
20260505161543 79 0 0.0 0.0 0.00 0.00 0.00 62 1016.2
20260505161024 79 0 0.0 0.0 0.00 0.00 0.00 65 1016.2
20260505160521 79 0 0.0 0.0 0.00 0.00 0.00 63 1016.2
20260505153041 78 0 0.0 0.0 0.00 0.00 0.00 65 1016.3
20260505152521 78 0 0.0 0.0 0.00 0.00 0.00 66 1016.2
20260505152022 78 0 0.0 0.0 0.00 0.00 0.00 67 1016.3
20260505151537 78 0 0.0 0.0 0.00 0.00 0.00 65 1016.3
20260505151025 78 0 0.0 0.0 0.00 0.00 0.00 67 1016.3
20260505150521 78 0 0.0 0.0 0.00 0.00 0.00 67 1016.3
20260505140523 76 81 8.0 15.0 0.00 0.00 0.00 76 1015.8
20260505130104 72 87 3.0 7.0 0.00 0.00 0.00 85 1015.8
20260505125024 71 96 4.0 8.0 0.00 0.00 0.00 87 1015.9
20260505124552 71 104 2.0 8.0 0.00 0.00 0.00 88 1016.0
20260505124022 70 101 5.0 8.0 0.00 0.00 0.00 88 1016.0
20260505123520 69 90 4.0 8.0 0.00 0.00 0.00 89 1016.0
20260505123045 69 93 4.0 8.0 0.00 0.00 0.00 90 1015.9
20260505122521 68 94 3.0 8.0 0.00 0.00 0.00 91 1015.9
20260505122021 68 89 4.0 9.0 0.00 0.00 0.00 91 1015.8
20260505121543 67 84 5.0 9.0 0.00 0.00 0.00 91 1015.7
20260505121020 67 83 6.0 9.0 0.00 0.00 0.00 92 1015.7
20260505120520 66 84 5.0 8.0 0.00 0.00 0.00 92 1015.6
20260505120045 66 85 5.0 8.0 0.00 0.00 0.00 92 1015.7
20260505115521 66 85 5.0 7.0 0.00 0.00 0.00 93 1015.8
20260505115022 66 86 3.0 6.0 0.00 0.00 0.00 93 1015.8
20260505114541 65 81 3.0 7.0 0.00 0.00 0.00 93 1015.7
20260505114022 65 76 4.0 7.0 0.00 0.00 0.00 93 1015.7
20260505113520 65 76 3.0 5.0 0.00 0.00 0.00 94 1015.5
20260505113039 64 70 3.0 5.0 0.00 0.00 0.00 94 1015.4
20260505112520 64 75 2.0 4.0 0.00 0.00 0.00 94 1015.3
20260505112021 64 76 2.0 5.0 0.00 0.00 0.00 94 1015.3
20260505111539 64 75 3.0 5.0 0.00 0.00 0.00 94 1015.2
20260505111022 63 70 3.0 5.0 0.00 0.00 0.00 94 1015.1
20260505110521 63 64 2.0 5.0 0.00 0.00 0.00 94 1015.2
20260505102021 62 0 0.0 0.0 0.00 0.00 0.00 92 1014.8
20260505101536 62 0 0.0 0.0 0.00 0.00 0.00 92 1014.9
20260505101021 62 0 0.0 0.0 0.00 0.00 0.00 92 1014.9
20260505100526 62 0 0.0 0.0 0.00 0.00 0.00 92 1014.8
20260505100036 63 0 0.0 0.0 0.00 0.00 0.00 92 1014.6
20260505095519 63 0 0.0 0.0 0.00 0.00 0.00 92 1014.6
20260505095020 63 0 0.0 0.0 0.00 0.00 0.00 92 1014.6
20260505094541 63 0 0.0 0.0 0.00 0.00 0.00 91 1014.6
20260505094022 63 0 0.0 0.0 0.00 0.00 0.00 91 1014.5
20260505093521 63 0 0.0 0.0 0.00 0.00 0.00 91 1014.5
20260505093040 63 0 0.0 0.0 0.00 0.00 0.00 91 1014.4
20260505092525 63 0 0.0 0.0 0.00 0.00 0.00 91 1014.3
20260505092021 63 0 0.0 0.0 0.00 0.00 0.00 91 1014.2
20260505091541 63 0 0.0 2.0 0.00 0.00 0.00 91 1014.3
20260505091024 64 0 0.0 2.0 0.00 0.00 0.00 91 1014.2
20260505090522 64 0 0.0 3.0 0.00 0.00 0.00 91 1014.4
20260505090040 64 0 0.0 3.0 0.00 0.00 0.00 91 1014.4
20260505085520 64 0 0.0 3.0 0.00 0.00 0.00 90 1014.3
20260505085020 64 0 0.0 4.0 0.00 0.00 0.00 91 1014.3
20260505084536 64 0 1.0 5.0 0.00 0.00 0.00 91 1014.3
20260505084019 64 79 1.0 5.0 0.00 0.00 0.00 91 1014.3
20260505083519 64 71 2.0 5.0 0.00 0.00 0.00 91 1014.1
20260505083035 64 69 2.0 5.0 0.00 0.00 0.00 91 1014.2
20260505082520 64 62 2.0 5.0 0.00 0.00 0.00 91 1014.1
20260505082022 64 67 3.0 5.0 0.00 0.00 0.00 90 1014.0
20260505081545 64 75 2.0 6.0 0.00 0.00 0.00 90 1014.1
20260505081023 64 71 3.0 6.0 0.00 0.00 0.00 91 1014.2
20260505080522 64 65 3.0 5.0 0.00 0.00 0.00 91 1014.1
20260505080044 64 69 2.0 6.0 0.00 0.00 0.00 91 1014.2
20260505075520 64 89 3.0 6.0 0.00 0.00 0.00 91 1014.0
20260505075023 64 67 3.0 6.0 0.00 0.00 0.00 91 1014.2
20260505074540 63 59 2.0 6.0 0.00 0.00 0.00 91 1014.3
20260505074020 63 52 1.0 5.0 0.00 0.00 0.00 90 1014.5
20260505073522 64 32 2.0 5.0 0.00 0.00 0.00 91 1014.5
20260505073047 63 53 1.0 5.0 0.00 0.00 0.00 91 1014.4
20260505072521 63 70 2.0 5.0 0.00 0.00 0.00 91 1014.3
20260505072020 63 67 2.0 4.0 0.00 0.00 0.00 90 1014.4
20260505071549 63 68 1.0 3.0 0.00 0.00 0.00 90 1014.5
20260505071022 63 0 0.0 2.0 0.00 0.00 0.00 90 1014.5
20260505070522 63 58 1.0 2.0 0.00 0.00 0.00 89 1014.6
20260505070036 63 0 0.0 1.0 0.00 0.00 0.00 89 1014.7
20260505065522 63 0 0.0 1.0 0.00 0.00 0.00 89 1014.8
20260505065021 64 0 0.0 2.0 0.00 0.00 0.00 89 1014.8
20260505064542 64 0 0.0 3.0 0.00 0.00 0.00 89 1014.8
20260505064026 64 0 0.0 3.0 0.00 0.00 0.00 89 1014.7
20260505063520 64 65 0.0 2.0 0.00 0.00 0.00 89 1014.8
20260505063040 64 66 0.0 2.0 0.00 0.00 0.00 89 1014.7
20260505062520 64 0 0.0 3.0 0.00 0.00 0.00 89 1014.8
20260505062020 64 0 0.0 3.0 0.00 0.00 0.00 89 1014.8
20260505061536 64 67 1.0 3.0 0.00 0.00 0.00 89 1014.7
20260505061022 64 0 1.0 4.0 0.00 0.00 0.00 88 1014.9
20260505060528 64 67 2.0 4.0 0.00 0.00 0.00 88 1015.0
20260505060523 64 67 1.0 3.0 0.00 0.00 0.00 88 1015.1
20260505055523 64 65 1.0 3.0 0.00 0.00 0.00 88 1015.2
20260505055022 64 66 0.0 3.0 0.00 0.00 0.00 88 1015.1
20260505054553 64 0 1.0 3.0 0.00 0.00 0.00 88 1015.2
20260505054020 64 69 0.0 0.0 0.00 0.00 0.00 87 1015.3
20260505053520 64 0 0.0 0.0 0.00 0.00 0.00 87 1015.3
20260505053054 65 0 0.0 0.0 0.00 0.00 0.00 87 1015.5
20260505052522 65 0 0.0 0.0 0.00 0.00 0.00 87 1015.7
20260505052020 65 0 0.0 1.0 0.00 0.00 0.00 86 1015.7
20260505051543 65 0 0.0 3.0 0.00 0.00 0.00 86 1015.8
20260505051023 65 0 0.0 3.0 0.00 0.00 0.00 86 1015.9
20260505050521 65 0 0.0 3.0 0.00 0.00 0.00 86 1015.8
20260505041542 65 88 3.0 7.0 0.00 0.00 0.00 85 1015.7
20260505041020 65 70 3.0 7.0 0.00 0.00 0.00 85 1015.8
20260505040520 65 44 3.0 7.0 0.00 0.00 0.00 85 1015.8
20260505040045 65 71 2.0 6.0 0.00 0.00 0.00 85 1016.0
20260505035520 65 76 2.0 6.0 0.00 0.00 0.00 85 1016.0
20260505035020 65 67 3.0 6.0 0.00 0.00 0.00 85 1016.0
20260505034539 65 62 2.0 5.0 0.00 0.00 0.00 85 1016.1
20260505034021 65 71 2.0 5.0 0.00 0.00 0.00 85 1016.2
20260505033520 66 71 2.0 5.0 0.00 0.00 0.00 84 1016.3
20260505033041 66 77 1.0 4.0 0.00 0.00 0.00 84 1016.3
20260505032520 66 64 1.0 4.0 0.00 0.00 0.00 84 1016.4
20260505032021 66 53 1.0 6.0 0.00 0.00 0.00 84 1016.4
20260505031544 66 0 1.0 6.0 0.00 0.00 0.00 83 1016.4
20260505031023 66 57 2.0 5.0 0.00 0.00 0.00 83 1016.3
20260505030520 66 62 2.0 6.0 0.00 0.00 0.00 83 1016.3
20260505030042 66 72 3.0 6.0 0.00 0.00 0.00 83 1016.2
20260505025521 66 71 2.0 5.0 0.00 0.00 0.00 82 1016.2
20260505025020 67 0 1.0 6.0 0.00 0.00 0.00 82 1016.5
20260505024539 67 73 3.0 7.0 0.00 0.00 0.00 82 1016.4
20260505024022 67 78 2.0 7.0 0.00 0.00 0.00 81 1016.3
20260505023520 67 55 3.0 5.0 0.00 0.00 0.00 81 1016.3
20260505023039 67 76 2.0 5.0 0.00 0.00 0.00 81 1016.3
20260505022520 67 50 2.0 7.0 0.00 0.00 0.00 81 1016.3
20260505022020 68 80 3.0 7.0 0.00 0.00 0.00 81 1016.3
20260505021536 68 68 3.0 7.0 0.00 0.00 0.00 80 1016.2
20260505021022 68 74 2.0 8.0 0.00 0.00 0.00 80 1016.2
20260505020520 68 80 3.0 8.0 0.00 0.00 0.00 80 1016.1
20260505020044 68 84 4.0 8.0 0.00 0.00 0.00 80 1016.0
20260505015521 68 75 4.0 8.0 0.00 0.00 0.00 80 1016.1
20260505015021 68 76 4.0 8.0 0.00 0.00 0.00 79 1016.1
20260505014544 69 82 4.0 7.0 0.00 0.00 0.00 79 1015.9
20260505014023 69 88 4.0 8.0 0.00 0.00 0.00 79 1015.9
20260505013523 69 88 4.0 8.0 0.00 0.00 0.00 79 1015.9
20260505013040 69 83 4.0 8.0 0.00 0.00 0.00 78 1015.8
20260505012526 69 79 3.0 8.0 0.00 0.00 0.00 79 1015.8
20260505012024 69 84 4.0 8.0 0.00 0.00 0.00 78 1015.7
20260505011550 69 76 3.0 8.0 0.00 0.00 0.00 77 1015.7
20260505011023 70 78 4.0 8.0 0.00 0.00 0.00 77 1015.7
20260505010523 70 72 3.0 7.0 0.00 0.00 0.00 77 1015.7
20260505010045 70 74 2.0 7.0 0.00 0.00 0.00 77 1015.8
20260505005525 70 81 3.0 8.0 0.00 0.00 0.00 76 1015.8
20260505005023 70 76 4.0 8.0 0.00 0.00 0.00 76 1015.7
20260505004544 70 93 4.0 9.0 0.00 0.00 0.00 76 1015.5
20260505004022 71 76 4.0 9.0 0.00 0.00 0.00 76 1015.5
20260505003523 71 92 4.0 8.0 0.00 0.00 0.00 75 1015.4
20260505003042 71 76 5.0 10.0 0.00 0.00 0.00 75 1015.5
20260505002524 71 76 6.0 10.0 0.00 0.00 0.00 75 1015.5
20260505002024 71 78 6.0 10.0 0.00 0.00 0.00 74 1015.3